Aviation Digital Data Service (ADDS)

Output produced by METARs form (1824 UTC 22 November 2017)
found at http://www.aviationweather.gov/adds/metars/
 
OIAA 221800Z 30004KT CAVOK 20/13 Q1012
TAF OIAA 221755Z 2218/2324 12004MPS 7000 NSC 
     BECMG 2219/2221 FEW030CB SCT035 BKN100 
     BECMG 2300/2303 FEW035 SCT100
       
OIBA 221500Z 26008KT CAVOK 27/14 Q1012
OIAG 221700Z 01014KT 4000 TSRA BKN030CB SCT035 16/15 Q1014 RETS
OIAW 221800Z 14004KT CAVOK 17/13 Q1012
TAF OIAW 221755Z 2218/2324 12004MPS 7000 NSC 
     BECMG 2219/2221 FEW030CB SCT035 BKN100 
     BECMG 2300/2303 FEW035 SCT100
       
OITL 221751Z 11016KT 9999 FEW030 FEW045CB SCT080 06/04 Q1009
OIAA 221800Z 30004KT CAVOK 20/13 Q1012
TAF OIAA 221755Z 2218/2324 12004MPS 7000 NSC 
     BECMG 2219/2221 FEW030CB SCT035 BKN100 
     BECMG 2300/2303 FEW035 SCT100
       
OIAG 221700Z 01014KT 4000 TSRA BKN030CB SCT035 16/15 Q1014 RETS
OIAH 221800Z 13008KT CAVOK 14/11 Q1016
OIAI 221700Z 15006KT 9999 FEW035CB SCT040 16/13 Q1012
OIAM 221800Z 31029KT 2000 +TS BKN020CB SCT035 18/15 Q1013
OIAW 221800Z 14004KT CAVOK 17/13 Q1012
TAF OIAW 221755Z 2218/2324 12004MPS 7000 NSC 
     BECMG 2219/2221 FEW030CB SCT035 BKN100 
     BECMG 2300/2303 FEW035 SCT100
       
OIBA 221500Z 26008KT CAVOK 27/14 Q1012
OIBB 221800Z 15014KT 8000 -TS FEW030CB SCT040 BKN090 19/15 Q1012 A2990
OIBJ 221500Z 08006KT 9999 SCT035 BKN200 14/14 Q1017
OIBK 221800Z 07010KT 6000 FEW025CB SCT030 BKN090 22/19 Q1013
TAF OIBK 221755Z 2218/2324 08007MPS 6000 FEW025CB SCT030 BKN090 
     TEMPO 2303/2314 4000 TS SHRA FEW030CB SCT035 BKN090 
     BECMG 2315/2318 FEW035
       
OIBL 221800Z 34012KT 7000 SCT025CB BKN090 21/16 Q1013
OIBP 221800Z 13004KT 9999 FEW040 19/17 Q1011 A2986
OIBQ 221500Z 13018KT 9999 SCT040 BKN100 22/18 Q1012
OIBS 221500Z 21010KT 9999 FEW025CB SCT100 27/14 Q1012
OIBV 221400Z 02016KT 6000 FEW025CB FEW035 BKN090 22/16 Q1012
OICC 221800Z 30010KT 7000 -RA SCT030CB SCT035 OVC080 08/05 Q1013 A2992
OICI 221800Z 22006KT 8000 FEW030CB SCT035 OVC080 07/05 Q1016 A3001 RERA
TAF OICI 221755Z 2218/2324 VRB03MPS 8000 FEW030TCU SCT035 OVC080 
     BECMG 2221/2223 SCT035 
     BECMG 2300/2303 NSC
       
OICJ 221651Z 13008KT 9999 FEW035CB SCT040 BKN090 09/03 Q1014
OICK 221750Z 15002KT CAVOK 08/07 Q1014
OICS 221752Z 16006KT 6000 -RA FEW035CB SCT040 BKN080 06/04 Q1012
OIFK 221700Z 00000KT CAVOK 11/M01 Q1012
OIFM 221800Z 00000KT 9999 FEW040 04/M04 Q1015 A2999
TAF OIFM 221755Z 2218/2324 14004MPS 7000 FEW030CB SCT035 BKN090 
     TEMPO 2218/2304 03007MPS 5000 SHRA BR 
     BECMG 2308/2310 FEW035 SCT100
       
OIFS 221800Z 27004KT 8000 FEW040 06/02 Q1018
OIGG 221800Z 29004KT 9999 FEW010CB BKN015 OVC080 14/13 Q1010
OIGK 221650Z 00000KT 9999 SCT020 BKN070 03/02 Q1010
OIHH 221753Z 24006KT 9999 FEW035CB SCT040 09/M01 Q1012
OIHM 221653Z 14008KT 9999 FEW035CB SCT040 06/02 Q1014 RESH
OIIE 221800Z 00000KT 9999 FEW040 SCT100 12/M01 Q1011
TAF OIIE 221755Z 2218/2324 12004MPS 9999 FEW040 SCT100 
     BECMG 2221/2223 FEW030CB SCT035 BKN100 
     TEMPO 2305/2308 4000 SHRA SCT030CB SCT035 OVC090 
     BECMG 2309/2311 NSC
       
OIII 221800Z 23004KT 9999 FEW040 SCT100 14/01 Q1011 A2988
TAF OIII 221755Z 2218/2324 22004MPS 7000 FEW040 SCT100 
     BECMG 2219/2221 FEW030CB SCT035 BKN100 
     TEMPO 2221/2224 03009MPS 4000 SHRA FEW035CB SCT035 OVC090 
     TEMPO 2305/2308 4000 SHRA SCT030CB SCT035 OVC090 
     BECMG 2309/2311 FEW035 SCT100
       
OIIK 221700Z 25004KT 9999 FEW030CB BKN100 09/06 Q1011
OIIP 221800Z 15006KT 9999 FEW035 BKN100 11/M03 Q1011
OIIS 221700Z 36002KT CAVOK 12/M02 Q1012
OIKB 221800Z 24004KT 9999 FEW100 24/18 Q1013 A2992
TAF OIKB 221755Z 2218/2324 32003MPS 7000 NSC 
     BECMG 2309/2312 7000 FEW035CB SCT040 BKN090 
     TEMPO 2315/2321 4000 TS SHRA SCT030CB SCT035 BKN090
       
OIKK 221800Z 16004KT 9999 FEW040 SCT100 10/M01 Q1018 A3008
TAF OIKK 221755Z 2218/2324 12004MPS 8000 FEW040 SCT100 
     BECMG 2309/2311 FEW035CB SCT040 BKN090
       
OIKO 221650Z 11002KT 8000 NSC 21/17 Q1014
OIKQ 221800Z 00000KT 6000 NSC 22/15 Q1013
OIMB 221800Z 10008KT CAVOK 09/M12 Q1017
OIMC 221800Z AUTO 18010KT //// // ////// 19/M04 Q1008
OIMD 221700Z 00000KT CAVOK 08/M10 Q1011
OIMM 221800Z 23006KT CAVOK 14/M05 Q1013 A2991
TAF OIMM 221755Z 2218/2324 12005MPS 7000 FEW040 
     BECMG 2306/2309 FEW035CB SCT040 BKN100 
     TEMPO 2309/2324 4000 SHRA
       
OIMN 221800Z 01004KT CAVOK 11/00 Q1012
OIMQ 221800Z AUTO 09006KT //// // ////// 11/M07 Q1014
OINB 221700Z VRB02KT 9999 SCT025 20/17 Q1008
OINE 221800Z 00000KT CAVOK 16/03 Q1006
OING 221800Z 29004KT CAVOK 13/08 Q1008
OINK 221700Z 00000KT CAVOK 17/06 Q1005
OINN 221800Z 26006KT 8000 -SHRA SCT020CB BKN025 17/15 Q1008
OINR 221800Z 31004KT 5000 -RA SCT020CB SCT025 OVC080 15/14 Q1009
OINZ 221800Z 20006KT 9999 FEW030 14/12 Q1009
OISA 221655Z 00000KT 9999 SCT040 07/02 Q1018
OISF 221800Z 00000KT 7000 FEW035CB SCT040 OVC090 10/10 Q1017
OISL 221800Z 00000KT 9999 FEW040 BKN100 13/11 Q1016
TAF OISL 221755Z 2218/2324 14004MPS 7000 FEW035 OVC100 
     TEMPO 2303/2312 21008MPS 3000 TSRA SCT030CB SCT035 OVC080 
     BECMG 2315/2318 NSC
       
OISR 221500Z 00000KT 5000 BR FEW035CB FEW040 BKN100 16/15 Q1016 RESH
OISS 221800Z 00000KT 5000 RA BR FEW010 FEW030CB SCT035 OVC070 09/09 Q1019 A3011
TAF OISS 221755Z 2218/2324 24004MPS 5000 RA / BR FEW035CB SCT040 OVC090 
     TEMPO 2221/2309 24009MPS 4000 TSRA SCT030CB SCT035 OVC080 
     BECMG 2310/2312 FEW040 SCT100
       
OISY 221800Z 12004KT 9999 FEW020 BKN035 BKN070 06/06 Q1020
OITL 221751Z 11016KT 9999 FEW030 FEW045CB SCT080 06/04 Q1009
OITM 221800Z 17006KT 9999 BKN038 06/03 Q1010
OITP 221700Z 29006KT 9999 SCT040 09/05 Q1010
OITR 221800Z 19004KT 9999 FEW030CB SCT035 04/M02 Q1009
TAF OITR 221755Z 2218/2324 16005MPS 9999 FEW035 
     BECMG 2309/2312 FEW030TCU SCT035 BKN100
       
OITT 221800Z 30004KT 9999 FEW035 03/M01 Q1010 A2984 NOSIG
TAF OITT 221755Z 2218/2324 33003MPS 9999 FEW035 
     BECMG 2309/2312 FEW030TCU SCT035 BKN100
       
OITU 221652Z 36012KT 9999 FEW030CB BKN035 03/M03 Q1008
OITZ 221500Z 13002KT 9999 FEW030CB SCT035 06/04 Q1009
OIYY 221800Z 17004KT 9999 FEW040 14/00 Q1014
OIZB 221800Z 34004KT CAVOK 09/M10 Q1014
TAF OIZC 221755Z 2218/2324 32003MPS 8000 NSC 
     BECMG 2307/2309 20005MPS
       
OIZH 221800Z 16010KT CAVOK 12/M13 Q1018 A3006
TAF OIZH 221755Z 2218/2324 15005MPS 8000 FEW040 BKN100 
     TEMPO 2315/22324 FEW035CB SCT040 BKN100
       
OIZI 221800Z 00000KT CAVOK 17/M10 Q1015
OIZJ 221800Z 09008KT 7000 NSC 25/18 Q1013
OIAA 221800Z 30004KT CAVOK 20/13 Q1012
TAF OIAA 221755Z 2218/2324 12004MPS 7000 NSC 
     BECMG 2219/2221 FEW030CB SCT035 BKN100 
     BECMG 2300/2303 FEW035 SCT100
       
OIAG 221700Z 01014KT 4000 TSRA BKN030CB SCT035 16/15 Q1014 RETS
OIAH 221800Z 13008KT CAVOK 14/11 Q1016
OIAI 221700Z 15006KT 9999 FEW035CB SCT040 16/13 Q1012
OIAM 221800Z 31029KT 2000 +TS BKN020CB SCT035 18/15 Q1013
OIAW 221800Z 14004KT CAVOK 17/13 Q1012
TAF OIAW 221755Z 2218/2324 12004MPS 7000 NSC 
     BECMG 2219/2221 FEW030CB SCT035 BKN100 
     BECMG 2300/2303 FEW035 SCT100
       
OIBA 221500Z 26008KT CAVOK 27/14 Q1012
OIBB 221800Z 15014KT 8000 -TS FEW030CB SCT040 BKN090 19/15 Q1012 A2990
OIBJ 221500Z 08006KT 9999 SCT035 BKN200 14/14 Q1017
OIBK 221800Z 07010KT 6000 FEW025CB SCT030 BKN090 22/19 Q1013
TAF OIBK 221755Z 2218/2324 08007MPS 6000 FEW025CB SCT030 BKN090 
     TEMPO 2303/2314 4000 TS SHRA FEW030CB SCT035 BKN090 
     BECMG 2315/2318 FEW035
       
OIBL 221800Z 34012KT 7000 SCT025CB BKN090 21/16 Q1013
OIBP 221800Z 13004KT 9999 FEW040 19/17 Q1011 A2986
OIBQ 221500Z 13018KT 9999 SCT040 BKN100 22/18 Q1012
OIBS 221500Z 21010KT 9999 FEW025CB SCT100 27/14 Q1012
OIBV 221400Z 02016KT 6000 FEW025CB FEW035 BKN090 22/16 Q1012
OICC 221800Z 30010KT 7000 -RA SCT030CB SCT035 OVC080 08/05 Q1013 A2992
OICI 221800Z 22006KT 8000 FEW030CB SCT035 OVC080 07/05 Q1016 A3001 RERA
TAF OICI 221755Z 2218/2324 VRB03MPS 8000 FEW030TCU SCT035 OVC080 
     BECMG 2221/2223 SCT035 
     BECMG 2300/2303 NSC
       
OICJ 221651Z 13008KT 9999 FEW035CB SCT040 BKN090 09/03 Q1014
OICK 221750Z 15002KT CAVOK 08/07 Q1014
OICS 221752Z 16006KT 6000 -RA FEW035CB SCT040 BKN080 06/04 Q1012
OIFK 221700Z 00000KT CAVOK 11/M01 Q1012
OIFM 221800Z 00000KT 9999 FEW040 04/M04 Q1015 A2999
TAF OIFM 221755Z 2218/2324 14004MPS 7000 FEW030CB SCT035 BKN090 
     TEMPO 2218/2304 03007MPS 5000 SHRA BR 
     BECMG 2308/2310 FEW035 SCT100
       
OIFS 221800Z 27004KT 8000 FEW040 06/02 Q1018
OIGG 221800Z 29004KT 9999 FEW010CB BKN015 OVC080 14/13 Q1010
OIGK 221650Z 00000KT 9999 SCT020 BKN070 03/02 Q1010
OIHH 221753Z 24006KT 9999 FEW035CB SCT040 09/M01 Q1012
OIHM 221653Z 14008KT 9999 FEW035CB SCT040 06/02 Q1014 RESH
OIIE 221800Z 00000KT 9999 FEW040 SCT100 12/M01 Q1011
TAF OIIE 221755Z 2218/2324 12004MPS 9999 FEW040 SCT100 
     BECMG 2221/2223 FEW030CB SCT035 BKN100 
     TEMPO 2305/2308 4000 SHRA SCT030CB SCT035 OVC090 
     BECMG 2309/2311 NSC
       
OIII 221800Z 23004KT 9999 FEW040 SCT100 14/01 Q1011 A2988
TAF OIII 221755Z 2218/2324 22004MPS 7000 FEW040 SCT100 
     BECMG 2219/2221 FEW030CB SCT035 BKN100 
     TEMPO 2221/2224 03009MPS 4000 SHRA FEW035CB SCT035 OVC090 
     TEMPO 2305/2308 4000 SHRA SCT030CB SCT035 OVC090 
     BECMG 2309/2311 FEW035 SCT100
       
OIIK 221700Z 25004KT 9999 FEW030CB BKN100 09/06 Q1011
OIIP 221800Z 15006KT 9999 FEW035 BKN100 11/M03 Q1011
OIIS 221700Z 36002KT CAVOK 12/M02 Q1012
OIKB 221800Z 24004KT 9999 FEW100 24/18 Q1013 A2992
TAF OIKB 221755Z 2218/2324 32003MPS 7000 NSC 
     BECMG 2309/2312 7000 FEW035CB SCT040 BKN090 
     TEMPO 2315/2321 4000 TS SHRA SCT030CB SCT035 BKN090
       
OIKK 221800Z 16004KT 9999 FEW040 SCT100 10/M01 Q1018 A3008
TAF OIKK 221755Z 2218/2324 12004MPS 8000 FEW040 SCT100 
     BECMG 2309/2311 FEW035CB SCT040 BKN090
       
OIKO 221650Z 11002KT 8000 NSC 21/17 Q1014
OIKQ 221800Z 00000KT 6000 NSC 22/15 Q1013
OIMB 221800Z 10008KT CAVOK 09/M12 Q1017
OIMC 221800Z AUTO 18010KT //// // ////// 19/M04 Q1008
OIMD 221700Z 00000KT CAVOK 08/M10 Q1011
OIMM 221800Z 23006KT CAVOK 14/M05 Q1013 A2991
TAF OIMM 221755Z 2218/2324 12005MPS 7000 FEW040 
     BECMG 2306/2309 FEW035CB SCT040 BKN100 
     TEMPO 2309/2324 4000 SHRA
       
OIMN 221800Z 01004KT CAVOK 11/00 Q1012
OIMQ 221800Z AUTO 09006KT //// // ////// 11/M07 Q1014
OINB 221700Z VRB02KT 9999 SCT025 20/17 Q1008
OINE 221800Z 00000KT CAVOK 16/03 Q1006
OING 221800Z 29004KT CAVOK 13/08 Q1008
OINK 221700Z 00000KT CAVOK 17/06 Q1005
OINN 221800Z 26006KT 8000 -SHRA SCT020CB BKN025 17/15 Q1008
OINR 221800Z 31004KT 5000 -RA SCT020CB SCT025 OVC080 15/14 Q1009
OINZ 221800Z 20006KT 9999 FEW030 14/12 Q1009
OISA 221655Z 00000KT 9999 SCT040 07/02 Q1018
OISF 221800Z 00000KT 7000 FEW035CB SCT040 OVC090 10/10 Q1017
OISL 221800Z 00000KT 9999 FEW040 BKN100 13/11 Q1016
TAF OISL 221755Z 2218/2324 14004MPS 7000 FEW035 OVC100 
     TEMPO 2303/2312 21008MPS 3000 TSRA SCT030CB SCT035 OVC080 
     BECMG 2315/2318 NSC
       
OISR 221500Z 00000KT 5000 BR FEW035CB FEW040 BKN100 16/15 Q1016 RESH
OISS 221800Z 00000KT 5000 RA BR FEW010 FEW030CB SCT035 OVC070 09/09 Q1019 A3011
TAF OISS 221755Z 2218/2324 24004MPS 5000 RA / BR FEW035CB SCT040 OVC090 
     TEMPO 2221/2309 24009MPS 4000 TSRA SCT030CB SCT035 OVC080 
     BECMG 2310/2312 FEW040 SCT100
       
OISY 221800Z 12004KT 9999 FEW020 BKN035 BKN070 06/06 Q1020
OITL 221751Z 11016KT 9999 FEW030 FEW045CB SCT080 06/04 Q1009
OITM 221800Z 17006KT 9999 BKN038 06/03 Q1010
OITP 221700Z 29006KT 9999 SCT040 09/05 Q1010
OITR 221800Z 19004KT 9999 FEW030CB SCT035 04/M02 Q1009
TAF OITR 221755Z 2218/2324 16005MPS 9999 FEW035 
     BECMG 2309/2312 FEW030TCU SCT035 BKN100
       
OITT 221800Z 30004KT 9999 FEW035 03/M01 Q1010 A2984 NOSIG
TAF OITT 221755Z 2218/2324 33003MPS 9999 FEW035 
     BECMG 2309/2312 FEW030TCU SCT035 BKN100
       
OITU 221652Z 36012KT 9999 FEW030CB BKN035 03/M03 Q1008
OITZ 221500Z 13002KT 9999 FEW030CB SCT035 06/04 Q1009
OIYY 221800Z 17004KT 9999 FEW040 14/00 Q1014
OIZB 221800Z 34004KT CAVOK 09/M10 Q1014
TAF OIZC 221755Z 2218/2324 32003MPS 8000 NSC 
     BECMG 2307/2309 20005MPS
       
OIZH 221800Z 16010KT CAVOK 12/M13 Q1018 A3006
TAF OIZH 221755Z 2218/2324 15005MPS 8000 FEW040 BKN100 
     TEMPO 2315/22324 FEW035CB SCT040 BKN100
       
OIZI 221800Z 00000KT CAVOK 17/M10 Q1015
OIZJ 221800Z 09008KT 7000 NSC 25/18 Q1013
OIKB 221800Z 24004KT 9999 FEW100 24/18 Q1013 A2992
TAF OIKB 221755Z 2218/2324 32003MPS 7000 NSC 
     BECMG 2309/2312 7000 FEW035CB SCT040 BKN090 
     TEMPO 2315/2321 4000 TS SHRA SCT030CB SCT035 BKN090
       
OIBL 221800Z 34012KT 7000 SCT025CB BKN090 21/16 Q1013
OIAA 221800Z 30004KT CAVOK 20/13 Q1012
TAF OIAA 221755Z 2218/2324 12004MPS 7000 NSC 
     BECMG 2219/2221 FEW030CB SCT035 BKN100 
     BECMG 2300/2303 FEW035 SCT100
       
OIAG 221700Z 01014KT 4000 TSRA BKN030CB SCT035 16/15 Q1014 RETS
OIAH 221800Z 13008KT CAVOK 14/11 Q1016
OIAI 221700Z 15006KT 9999 FEW035CB SCT040 16/13 Q1012
OIAM 221800Z 31029KT 2000 +TS BKN020CB SCT035 18/15 Q1013
OIAW 221800Z 14004KT CAVOK 17/13 Q1012
TAF OIAW 221755Z 2218/2324 12004MPS 7000 NSC 
     BECMG 2219/2221 FEW030CB SCT035 BKN100 
     BECMG 2300/2303 FEW035 SCT100
       
OIBA 221500Z 26008KT CAVOK 27/14 Q1012
OIBB 221800Z 15014KT 8000 -TS FEW030CB SCT040 BKN090 19/15 Q1012 A2990
OIBJ 221500Z 08006KT 9999 SCT035 BKN200 14/14 Q1017
OIBK 221800Z 07010KT 6000 FEW025CB SCT030 BKN090 22/19 Q1013
TAF OIBK 221755Z 2218/2324 08007MPS 6000 FEW025CB SCT030 BKN090 
     TEMPO 2303/2314 4000 TS SHRA FEW030CB SCT035 BKN090 
     BECMG 2315/2318 FEW035
       
OIBL 221800Z 34012KT 7000 SCT025CB BKN090 21/16 Q1013
OIBP 221800Z 13004KT 9999 FEW040 19/17 Q1011 A2986
OIBQ 221500Z 13018KT 9999 SCT040 BKN100 22/18 Q1012
OIBS 221500Z 21010KT 9999 FEW025CB SCT100 27/14 Q1012
OIBV 221400Z 02016KT 6000 FEW025CB FEW035 BKN090 22/16 Q1012
OICC 221800Z 30010KT 7000 -RA SCT030CB SCT035 OVC080 08/05 Q1013 A2992
OICI 221800Z 22006KT 8000 FEW030CB SCT035 OVC080 07/05 Q1016 A3001 RERA
TAF OICI 221755Z 2218/2324 VRB03MPS 8000 FEW030TCU SCT035 OVC080 
     BECMG 2221/2223 SCT035 
     BECMG 2300/2303 NSC
       
OICJ 221651Z 13008KT 9999 FEW035CB SCT040 BKN090 09/03 Q1014
OICK 221750Z 15002KT CAVOK 08/07 Q1014
OICS 221752Z 16006KT 6000 -RA FEW035CB SCT040 BKN080 06/04 Q1012
OIFK 221700Z 00000KT CAVOK 11/M01 Q1012
OIFM 221800Z 00000KT 9999 FEW040 04/M04 Q1015 A2999
TAF OIFM 221755Z 2218/2324 14004MPS 7000 FEW030CB SCT035 BKN090 
     TEMPO 2218/2304 03007MPS 5000 SHRA BR 
     BECMG 2308/2310 FEW035 SCT100
       
OIFS 221800Z 27004KT 8000 FEW040 06/02 Q1018
OIGG 221800Z 29004KT 9999 FEW010CB BKN015 OVC080 14/13 Q1010
OIGK 221650Z 00000KT 9999 SCT020 BKN070 03/02 Q1010
OIHH 221753Z 24006KT 9999 FEW035CB SCT040 09/M01 Q1012
OIHM 221653Z 14008KT 9999 FEW035CB SCT040 06/02 Q1014 RESH
OIIE 221800Z 00000KT 9999 FEW040 SCT100 12/M01 Q1011
TAF OIIE 221755Z 2218/2324 12004MPS 9999 FEW040 SCT100 
     BECMG 2221/2223 FEW030CB SCT035 BKN100 
     TEMPO 2305/2308 4000 SHRA SCT030CB SCT035 OVC090 
     BECMG 2309/2311 NSC
       
OIII 221800Z 23004KT 9999 FEW040 SCT100 14/01 Q1011 A2988
TAF OIII 221755Z 2218/2324 22004MPS 7000 FEW040 SCT100 
     BECMG 2219/2221 FEW030CB SCT035 BKN100 
     TEMPO 2221/2224 03009MPS 4000 SHRA FEW035CB SCT035 OVC090 
     TEMPO 2305/2308 4000 SHRA SCT030CB SCT035 OVC090 
     BECMG 2309/2311 FEW035 SCT100
       
OIIK 221700Z 25004KT 9999 FEW030CB BKN100 09/06 Q1011
OIIP 221800Z 15006KT 9999 FEW035 BKN100 11/M03 Q1011
OIIS 221700Z 36002KT CAVOK 12/M02 Q1012
OIKB 221800Z 24004KT 9999 FEW100 24/18 Q1013 A2992
TAF OIKB 221755Z 2218/2324 32003MPS 7000 NSC 
     BECMG 2309/2312 7000 FEW035CB SCT040 BKN090 
     TEMPO 2315/2321 4000 TS SHRA SCT030CB SCT035 BKN090
       
OIKK 221800Z 16004KT 9999 FEW040 SCT100 10/M01 Q1018 A3008
TAF OIKK 221755Z 2218/2324 12004MPS 8000 FEW040 SCT100 
     BECMG 2309/2311 FEW035CB SCT040 BKN090
       
OIKO 221650Z 11002KT 8000 NSC 21/17 Q1014
OIKQ 221800Z 00000KT 6000 NSC 22/15 Q1013
OIMB 221800Z 10008KT CAVOK 09/M12 Q1017
OIMC 221800Z AUTO 18010KT //// // ////// 19/M04 Q1008
OIMD 221700Z 00000KT CAVOK 08/M10 Q1011
OIMM 221800Z 23006KT CAVOK 14/M05 Q1013 A2991
TAF OIMM 221755Z 2218/2324 12005MPS 7000 FEW040 
     BECMG 2306/2309 FEW035CB SCT040 BKN100 
     TEMPO 2309/2324 4000 SHRA
       
OIMN 221800Z 01004KT CAVOK 11/00 Q1012
OIMQ 221800Z AUTO 09006KT //// // ////// 11/M07 Q1014
OINB 221700Z VRB02KT 9999 SCT025 20/17 Q1008
OINE 221800Z 00000KT CAVOK 16/03 Q1006
OING 221800Z 29004KT CAVOK 13/08 Q1008
OINK 221700Z 00000KT CAVOK 17/06 Q1005
OINN 221800Z 26006KT 8000 -SHRA SCT020CB BKN025 17/15 Q1008
OINR 221800Z 31004KT 5000 -RA SCT020CB SCT025 OVC080 15/14 Q1009
OINZ 221800Z 20006KT 9999 FEW030 14/12 Q1009
OISA 221655Z 00000KT 9999 SCT040 07/02 Q1018
OISF 221800Z 00000KT 7000 FEW035CB SCT040 OVC090 10/10 Q1017
OISL 221800Z 00000KT 9999 FEW040 BKN100 13/11 Q1016
TAF OISL 221755Z 2218/2324 14004MPS 7000 FEW035 OVC100 
     TEMPO 2303/2312 21008MPS 3000 TSRA SCT030CB SCT035 OVC080 
     BECMG 2315/2318 NSC
       
OISR 221500Z 00000KT 5000 BR FEW035CB FEW040 BKN100 16/15 Q1016 RESH
OISS 221800Z 00000KT 5000 RA BR FEW010 FEW030CB SCT035 OVC070 09/09 Q1019 A3011
TAF OISS 221755Z 2218/2324 24004MPS 5000 RA / BR FEW035CB SCT040 OVC090 
     TEMPO 2221/2309 24009MPS 4000 TSRA SCT030CB SCT035 OVC080 
     BECMG 2310/2312 FEW040 SCT100
       
OISY 221800Z 12004KT 9999 FEW020 BKN035 BKN070 06/06 Q1020
OITL 221751Z 11016KT 9999 FEW030 FEW045CB SCT080 06/04 Q1009
OITM 221800Z 17006KT 9999 BKN038 06/03 Q1010
OITP 221700Z 29006KT 9999 SCT040 09/05 Q1010
OITR 221800Z 19004KT 9999 FEW030CB SCT035 04/M02 Q1009
TAF OITR 221755Z 2218/2324 16005MPS 9999 FEW035 
     BECMG 2309/2312 FEW030TCU SCT035 BKN100
       
OITT 221800Z 30004KT 9999 FEW035 03/M01 Q1010 A2984 NOSIG
TAF OITT 221755Z 2218/2324 33003MPS 9999 FEW035 
     BECMG 2309/2312 FEW030TCU SCT035 BKN100
       
OITU 221652Z 36012KT 9999 FEW030CB BKN035 03/M03 Q1008
OITZ 221500Z 13002KT 9999 FEW030CB SCT035 06/04 Q1009
OIYY 221800Z 17004KT 9999 FEW040 14/00 Q1014
OIZB 221800Z 34004KT CAVOK 09/M10 Q1014
TAF OIZC 221755Z 2218/2324 32003MPS 8000 NSC 
     BECMG 2307/2309 20005MPS
       
OIZH 221800Z 16010KT CAVOK 12/M13 Q1018 A3006
TAF OIZH 221755Z 2218/2324 15005MPS 8000 FEW040 BKN100 
     TEMPO 2315/22324 FEW035CB SCT040 BKN100
       
OIZI 221800Z 00000KT CAVOK 17/M10 Q1015
OIZJ 221800Z 09008KT 7000 NSC 25/18 Q1013
OIMB 221800Z 10008KT CAVOK 09/M12 Q1017
OIMN 221800Z 01004KT CAVOK 11/00 Q1012
OIBB 221800Z 15014KT 8000 -TS FEW030CB SCT040 BKN090 19/15 Q1012 A2990
TAF OIZC 221755Z 2218/2324 32003MPS 8000 NSC 
     BECMG 2307/2309 20005MPS
       
OIKQ 221800Z 00000KT 6000 NSC 22/15 Q1013
OIAA 221800Z 30004KT CAVOK 20/13 Q1012
TAF OIAA 221755Z 2218/2324 12004MPS 7000 NSC 
     BECMG 2219/2221 FEW030CB SCT035 BKN100 
     BECMG 2300/2303 FEW035 SCT100
       
OIAG 221700Z 01014KT 4000 TSRA BKN030CB SCT035 16/15 Q1014 RETS
OIAH 221800Z 13008KT CAVOK 14/11 Q1016
OIAI 221700Z 15006KT 9999 FEW035CB SCT040 16/13 Q1012
OIAM 221800Z 31029KT 2000 +TS BKN020CB SCT035 18/15 Q1013
OIAW 221800Z 14004KT CAVOK 17/13 Q1012
TAF OIAW 221755Z 2218/2324 12004MPS 7000 NSC 
     BECMG 2219/2221 FEW030CB SCT035 BKN100 
     BECMG 2300/2303 FEW035 SCT100
       
OIBA 221500Z 26008KT CAVOK 27/14 Q1012
OIBB 221800Z 15014KT 8000 -TS FEW030CB SCT040 BKN090 19/15 Q1012 A2990
OIBJ 221500Z 08006KT 9999 SCT035 BKN200 14/14 Q1017
OIBK 221800Z 07010KT 6000 FEW025CB SCT030 BKN090 22/19 Q1013
TAF OIBK 221755Z 2218/2324 08007MPS 6000 FEW025CB SCT030 BKN090 
     TEMPO 2303/2314 4000 TS SHRA FEW030CB SCT035 BKN090 
     BECMG 2315/2318 FEW035
       
OIBL 221800Z 34012KT 7000 SCT025CB BKN090 21/16 Q1013
OIBP 221800Z 13004KT 9999 FEW040 19/17 Q1011 A2986
OIBQ 221500Z 13018KT 9999 SCT040 BKN100 22/18 Q1012
OIBS 221500Z 21010KT 9999 FEW025CB SCT100 27/14 Q1012
OIBV 221400Z 02016KT 6000 FEW025CB FEW035 BKN090 22/16 Q1012
OICC 221800Z 30010KT 7000 -RA SCT030CB SCT035 OVC080 08/05 Q1013 A2992
OICI 221800Z 22006KT 8000 FEW030CB SCT035 OVC080 07/05 Q1016 A3001 RERA
TAF OICI 221755Z 2218/2324 VRB03MPS 8000 FEW030TCU SCT035 OVC080 
     BECMG 2221/2223 SCT035 
     BECMG 2300/2303 NSC
       
OICJ 221651Z 13008KT 9999 FEW035CB SCT040 BKN090 09/03 Q1014
OICK 221750Z 15002KT CAVOK 08/07 Q1014
OICS 221752Z 16006KT 6000 -RA FEW035CB SCT040 BKN080 06/04 Q1012
OIFK 221700Z 00000KT CAVOK 11/M01 Q1012
OIFM 221800Z 00000KT 9999 FEW040 04/M04 Q1015 A2999
TAF OIFM 221755Z 2218/2324 14004MPS 7000 FEW030CB SCT035 BKN090 
     TEMPO 2218/2304 03007MPS 5000 SHRA BR 
     BECMG 2308/2310 FEW035 SCT100
       
OIFS 221800Z 27004KT 8000 FEW040 06/02 Q1018
OIGG 221800Z 29004KT 9999 FEW010CB BKN015 OVC080 14/13 Q1010
OIGK 221650Z 00000KT 9999 SCT020 BKN070 03/02 Q1010
OIHH 221753Z 24006KT 9999 FEW035CB SCT040 09/M01 Q1012
OIHM 221653Z 14008KT 9999 FEW035CB SCT040 06/02 Q1014 RESH
OIIE 221800Z 00000KT 9999 FEW040 SCT100 12/M01 Q1011
TAF OIIE 221755Z 2218/2324 12004MPS 9999 FEW040 SCT100 
     BECMG 2221/2223 FEW030CB SCT035 BKN100 
     TEMPO 2305/2308 4000 SHRA SCT030CB SCT035 OVC090 
     BECMG 2309/2311 NSC
       
OIII 221800Z 23004KT 9999 FEW040 SCT100 14/01 Q1011 A2988
TAF OIII 221755Z 2218/2324 22004MPS 7000 FEW040 SCT100 
     BECMG 2219/2221 FEW030CB SCT035 BKN100 
     TEMPO 2221/2224 03009MPS 4000 SHRA FEW035CB SCT035 OVC090 
     TEMPO 2305/2308 4000 SHRA SCT030CB SCT035 OVC090 
     BECMG 2309/2311 FEW035 SCT100
       
OIIK 221700Z 25004KT 9999 FEW030CB BKN100 09/06 Q1011
OIIP 221800Z 15006KT 9999 FEW035 BKN100 11/M03 Q1011
OIIS 221700Z 36002KT CAVOK 12/M02 Q1012
OIKB 221800Z 24004KT 9999 FEW100 24/18 Q1013 A2992
TAF OIKB 221755Z 2218/2324 32003MPS 7000 NSC 
     BECMG 2309/2312 7000 FEW035CB SCT040 BKN090 
     TEMPO 2315/2321 4000 TS SHRA SCT030CB SCT035 BKN090
       
OIKK 221800Z 16004KT 9999 FEW040 SCT100 10/M01 Q1018 A3008
TAF OIKK 221755Z 2218/2324 12004MPS 8000 FEW040 SCT100 
     BECMG 2309/2311 FEW035CB SCT040 BKN090
       
OIKO 221650Z 11002KT 8000 NSC 21/17 Q1014
OIKQ 221800Z 00000KT 6000 NSC 22/15 Q1013
OIMB 221800Z 10008KT CAVOK 09/M12 Q1017
OIMC 221800Z AUTO 18010KT //// // ////// 19/M04 Q1008
OIMD 221700Z 00000KT CAVOK 08/M10 Q1011
OIMM 221800Z 23006KT CAVOK 14/M05 Q1013 A2991
TAF OIMM 221755Z 2218/2324 12005MPS 7000 FEW040 
     BECMG 2306/2309 FEW035CB SCT040 BKN100 
     TEMPO 2309/2324 4000 SHRA
       
OIMN 221800Z 01004KT CAVOK 11/00 Q1012
OIMQ 221800Z AUTO 09006KT //// // ////// 11/M07 Q1014
OINB 221700Z VRB02KT 9999 SCT025 20/17 Q1008
OINE 221800Z 00000KT CAVOK 16/03 Q1006
OING 221800Z 29004KT CAVOK 13/08 Q1008
OINK 221700Z 00000KT CAVOK 17/06 Q1005
OINN 221800Z 26006KT 8000 -SHRA SCT020CB BKN025 17/15 Q1008
OINR 221800Z 31004KT 5000 -RA SCT020CB SCT025 OVC080 15/14 Q1009
OINZ 221800Z 20006KT 9999 FEW030 14/12 Q1009
OISA 221655Z 00000KT 9999 SCT040 07/02 Q1018
OISF 221800Z 00000KT 7000 FEW035CB SCT040 OVC090 10/10 Q1017
OISL 221800Z 00000KT 9999 FEW040 BKN100 13/11 Q1016
TAF OISL 221755Z 2218/2324 14004MPS 7000 FEW035 OVC100 
     TEMPO 2303/2312 21008MPS 3000 TSRA SCT030CB SCT035 OVC080 
     BECMG 2315/2318 NSC
       
OISR 221500Z 00000KT 5000 BR FEW035CB FEW040 BKN100 16/15 Q1016 RESH
OISS 221800Z 00000KT 5000 RA BR FEW010 FEW030CB SCT035 OVC070 09/09 Q1019 A3011
TAF OISS 221755Z 2218/2324 24004MPS 5000 RA / BR FEW035CB SCT040 OVC090 
     TEMPO 2221/2309 24009MPS 4000 TSRA SCT030CB SCT035 OVC080 
     BECMG 2310/2312 FEW040 SCT100
       
OISY 221800Z 12004KT 9999 FEW020 BKN035 BKN070 06/06 Q1020
OITL 221751Z 11016KT 9999 FEW030 FEW045CB SCT080 06/04 Q1009
OITM 221800Z 17006KT 9999 BKN038 06/03 Q1010
OITP 221700Z 29006KT 9999 SCT040 09/05 Q1010
OITR 221800Z 19004KT 9999 FEW030CB SCT035 04/M02 Q1009
TAF OITR 221755Z 2218/2324 16005MPS 9999 FEW035 
     BECMG 2309/2312 FEW030TCU SCT035 BKN100
       
OITT 221800Z 30004KT 9999 FEW035 03/M01 Q1010 A2984 NOSIG
TAF OITT 221755Z 2218/2324 33003MPS 9999 FEW035 
     BECMG 2309/2312 FEW030TCU SCT035 BKN100
       
OITU 221652Z 36012KT 9999 FEW030CB BKN035 03/M03 Q1008
OITZ 221500Z 13002KT 9999 FEW030CB SCT035 06/04 Q1009
OIYY 221800Z 17004KT 9999 FEW040 14/00 Q1014
OIZB 221800Z 34004KT CAVOK 09/M10 Q1014
TAF OIZC 221755Z 2218/2324 32003MPS 8000 NSC 
     BECMG 2307/2309 20005MPS
       
OIZH 221800Z 16010KT CAVOK 12/M13 Q1018 A3006
TAF OIZH 221755Z 2218/2324 15005MPS 8000 FEW040 BKN100 
     TEMPO 2315/22324 FEW035CB SCT040 BKN100
       
OIZI 221800Z 00000KT CAVOK 17/M10 Q1015
OIZJ 221800Z 09008KT 7000 NSC 25/18 Q1013
OIFM 221800Z 00000KT 9999 FEW040 04/M04 Q1015 A2999
TAF OIFM 221755Z 2218/2324 14004MPS 7000 FEW030CB SCT035 BKN090 
     TEMPO 2218/2304 03007MPS 5000 SHRA BR 
     BECMG 2308/2310 FEW035 SCT100
       
OISF 221800Z 00000KT 7000 FEW035CB SCT040 OVC090 10/10 Q1017
OIAH 221800Z 13008KT CAVOK 14/11 Q1016
OIAA 221800Z 30004KT CAVOK 20/13 Q1012
TAF OIAA 221755Z 2218/2324 12004MPS 7000 NSC 
     BECMG 2219/2221 FEW030CB SCT035 BKN100 
     BECMG 2300/2303 FEW035 SCT100
       
OIAG 221700Z 01014KT 4000 TSRA BKN030CB SCT035 16/15 Q1014 RETS
OIAH 221800Z 13008KT CAVOK 14/11 Q1016
OIAI 221700Z 15006KT 9999 FEW035CB SCT040 16/13 Q1012
OIAM 221800Z 31029KT 2000 +TS BKN020CB SCT035 18/15 Q1013
OIAW 221800Z 14004KT CAVOK 17/13 Q1012
TAF OIAW 221755Z 2218/2324 12004MPS 7000 NSC 
     BECMG 2219/2221 FEW030CB SCT035 BKN100 
     BECMG 2300/2303 FEW035 SCT100
       
OIBA 221500Z 26008KT CAVOK 27/14 Q1012
OIBB 221800Z 15014KT 8000 -TS FEW030CB SCT040 BKN090 19/15 Q1012 A2990
OIBJ 221500Z 08006KT 9999 SCT035 BKN200 14/14 Q1017
OIBK 221800Z 07010KT 6000 FEW025CB SCT030 BKN090 22/19 Q1013
TAF OIBK 221755Z 2218/2324 08007MPS 6000 FEW025CB SCT030 BKN090 
     TEMPO 2303/2314 4000 TS SHRA FEW030CB SCT035 BKN090 
     BECMG 2315/2318 FEW035
       
OIBL 221800Z 34012KT 7000 SCT025CB BKN090 21/16 Q1013
OIBP 221800Z 13004KT 9999 FEW040 19/17 Q1011 A2986
OIBQ 221500Z 13018KT 9999 SCT040 BKN100 22/18 Q1012
OIBS 221500Z 21010KT 9999 FEW025CB SCT100 27/14 Q1012
OIBV 221400Z 02016KT 6000 FEW025CB FEW035 BKN090 22/16 Q1012
OICC 221800Z 30010KT 7000 -RA SCT030CB SCT035 OVC080 08/05 Q1013 A2992
OICI 221800Z 22006KT 8000 FEW030CB SCT035 OVC080 07/05 Q1016 A3001 RERA
TAF OICI 221755Z 2218/2324 VRB03MPS 8000 FEW030TCU SCT035 OVC080 
     BECMG 2221/2223 SCT035 
     BECMG 2300/2303 NSC
       
OICJ 221651Z 13008KT 9999 FEW035CB SCT040 BKN090 09/03 Q1014
OICK 221750Z 15002KT CAVOK 08/07 Q1014
OICS 221752Z 16006KT 6000 -RA FEW035CB SCT040 BKN080 06/04 Q1012
OIFK 221700Z 00000KT CAVOK 11/M01 Q1012
OIFM 221800Z 00000KT 9999 FEW040 04/M04 Q1015 A2999
TAF OIFM 221755Z 2218/2324 14004MPS 7000 FEW030CB SCT035 BKN090 
     TEMPO 2218/2304 03007MPS 5000 SHRA BR 
     BECMG 2308/2310 FEW035 SCT100
       
OIFS 221800Z 27004KT 8000 FEW040 06/02 Q1018
OIGG 221800Z 29004KT 9999 FEW010CB BKN015 OVC080 14/13 Q1010
OIGK 221650Z 00000KT 9999 SCT020 BKN070 03/02 Q1010
OIHH 221753Z 24006KT 9999 FEW035CB SCT040 09/M01 Q1012
OIHM 221653Z 14008KT 9999 FEW035CB SCT040 06/02 Q1014 RESH
OIIE 221800Z 00000KT 9999 FEW040 SCT100 12/M01 Q1011
TAF OIIE 221755Z 2218/2324 12004MPS 9999 FEW040 SCT100 
     BECMG 2221/2223 FEW030CB SCT035 BKN100 
     TEMPO 2305/2308 4000 SHRA SCT030CB SCT035 OVC090 
     BECMG 2309/2311 NSC
       
OIII 221800Z 23004KT 9999 FEW040 SCT100 14/01 Q1011 A2988
TAF OIII 221755Z 2218/2324 22004MPS 7000 FEW040 SCT100 
     BECMG 2219/2221 FEW030CB SCT035 BKN100 
     TEMPO 2221/2224 03009MPS 4000 SHRA FEW035CB SCT035 OVC090 
     TEMPO 2305/2308 4000 SHRA SCT030CB SCT035 OVC090 
     BECMG 2309/2311 FEW035 SCT100
       
OIIK 221700Z 25004KT 9999 FEW030CB BKN100 09/06 Q1011
OIIP 221800Z 15006KT 9999 FEW035 BKN100 11/M03 Q1011
OIIS 221700Z 36002KT CAVOK 12/M02 Q1012
OIKB 221800Z 24004KT 9999 FEW100 24/18 Q1013 A2992
TAF OIKB 221755Z 2218/2324 32003MPS 7000 NSC 
     BECMG 2309/2312 7000 FEW035CB SCT040 BKN090 
     TEMPO 2315/2321 4000 TS SHRA SCT030CB SCT035 BKN090
       
OIKK 221800Z 16004KT 9999 FEW040 SCT100 10/M01 Q1018 A3008
TAF OIKK 221755Z 2218/2324 12004MPS 8000 FEW040 SCT100 
     BECMG 2309/2311 FEW035CB SCT040 BKN090
       
OIKO 221650Z 11002KT 8000 NSC 21/17 Q1014
OIKQ 221800Z 00000KT 6000 NSC 22/15 Q1013
OIMB 221800Z 10008KT CAVOK 09/M12 Q1017
OIMC 221800Z AUTO 18010KT //// // ////// 19/M04 Q1008
OIMD 221700Z 00000KT CAVOK 08/M10 Q1011
OIMM 221800Z 23006KT CAVOK 14/M05 Q1013 A2991
TAF OIMM 221755Z 2218/2324 12005MPS 7000 FEW040 
     BECMG 2306/2309 FEW035CB SCT040 BKN100 
     TEMPO 2309/2324 4000 SHRA
       
OIMN 221800Z 01004KT CAVOK 11/00 Q1012
OIMQ 221800Z AUTO 09006KT //// // ////// 11/M07 Q1014
OINB 221700Z VRB02KT 9999 SCT025 20/17 Q1008
OINE 221800Z 00000KT CAVOK 16/03 Q1006
OING 221800Z 29004KT CAVOK 13/08 Q1008
OINK 221700Z 00000KT CAVOK 17/06 Q1005
OINN 221800Z 26006KT 8000 -SHRA SCT020CB BKN025 17/15 Q1008
OINR 221800Z 31004KT 5000 -RA SCT020CB SCT025 OVC080 15/14 Q1009
OINZ 221800Z 20006KT 9999 FEW030 14/12 Q1009
OISA 221655Z 00000KT 9999 SCT040 07/02 Q1018
OISF 221800Z 00000KT 7000 FEW035CB SCT040 OVC090 10/10 Q1017
OISL 221800Z 00000KT 9999 FEW040 BKN100 13/11 Q1016
TAF OISL 221755Z 2218/2324 14004MPS 7000 FEW035 OVC100 
     TEMPO 2303/2312 21008MPS 3000 TSRA SCT030CB SCT035 OVC080 
     BECMG 2315/2318 NSC
       
OISR 221500Z 00000KT 5000 BR FEW035CB FEW040 BKN100 16/15 Q1016 RESH
OISS 221800Z 00000KT 5000 RA BR FEW010 FEW030CB SCT035 OVC070 09/09 Q1019 A3011
TAF OISS 221755Z 2218/2324 24004MPS 5000 RA / BR FEW035CB SCT040 OVC090 
     TEMPO 2221/2309 24009MPS 4000 TSRA SCT030CB SCT035 OVC080 
     BECMG 2310/2312 FEW040 SCT100
       
OISY 221800Z 12004KT 9999 FEW020 BKN035 BKN070 06/06 Q1020
OITL 221751Z 11016KT 9999 FEW030 FEW045CB SCT080 06/04 Q1009
OITM 221800Z 17006KT 9999 BKN038 06/03 Q1010
OITP 221700Z 29006KT 9999 SCT040 09/05 Q1010
OITR 221800Z 19004KT 9999 FEW030CB SCT035 04/M02 Q1009
TAF OITR 221755Z 2218/2324 16005MPS 9999 FEW035 
     BECMG 2309/2312 FEW030TCU SCT035 BKN100
       
OITT 221800Z 30004KT 9999 FEW035 03/M01 Q1010 A2984 NOSIG
TAF OITT 221755Z 2218/2324 33003MPS 9999 FEW035 
     BECMG 2309/2312 FEW030TCU SCT035 BKN100
       
OITU 221652Z 36012KT 9999 FEW030CB BKN035 03/M03 Q1008
OITZ 221500Z 13002KT 9999 FEW030CB SCT035 06/04 Q1009
OIYY 221800Z 17004KT 9999 FEW040 14/00 Q1014
OIZB 221800Z 34004KT CAVOK 09/M10 Q1014
TAF OIZC 221755Z 2218/2324 32003MPS 8000 NSC 
     BECMG 2307/2309 20005MPS
       
OIZH 221800Z 16010KT CAVOK 12/M13 Q1018 A3006
TAF OIZH 221755Z 2218/2324 15005MPS 8000 FEW040 BKN100 
     TEMPO 2315/22324 FEW035CB SCT040 BKN100
       
OIZI 221800Z 00000KT CAVOK 17/M10 Q1015
OIZJ 221800Z 09008KT 7000 NSC 25/18 Q1013
OIIK 221700Z 25004KT 9999 FEW030CB BKN100 09/06 Q1011
OIAA 221800Z 30004KT CAVOK 20/13 Q1012
TAF OIAA 221755Z 2218/2324 12004MPS 7000 NSC 
     BECMG 2219/2221 FEW030CB SCT035 BKN100 
     BECMG 2300/2303 FEW035 SCT100
       
OIAG 221700Z 01014KT 4000 TSRA BKN030CB SCT035 16/15 Q1014 RETS
OIAH 221800Z 13008KT CAVOK 14/11 Q1016
OIAI 221700Z 15006KT 9999 FEW035CB SCT040 16/13 Q1012
OIAM 221800Z 31029KT 2000 +TS BKN020CB SCT035 18/15 Q1013
OIAW 221800Z 14004KT CAVOK 17/13 Q1012
TAF OIAW 221755Z 2218/2324 12004MPS 7000 NSC 
     BECMG 2219/2221 FEW030CB SCT035 BKN100 
     BECMG 2300/2303 FEW035 SCT100
       
OIBA 221500Z 26008KT CAVOK 27/14 Q1012
OIBB 221800Z 15014KT 8000 -TS FEW030CB SCT040 BKN090 19/15 Q1012 A2990
OIBJ 221500Z 08006KT 9999 SCT035 BKN200 14/14 Q1017
OIBK 221800Z 07010KT 6000 FEW025CB SCT030 BKN090 22/19 Q1013
TAF OIBK 221755Z 2218/2324 08007MPS 6000 FEW025CB SCT030 BKN090 
     TEMPO 2303/2314 4000 TS SHRA FEW030CB SCT035 BKN090 
     BECMG 2315/2318 FEW035
       
OIBL 221800Z 34012KT 7000 SCT025CB BKN090 21/16 Q1013
OIBP 221800Z 13004KT 9999 FEW040 19/17 Q1011 A2986
OIBQ 221500Z 13018KT 9999 SCT040 BKN100 22/18 Q1012
OIBS 221500Z 21010KT 9999 FEW025CB SCT100 27/14 Q1012
OIBV 221400Z 02016KT 6000 FEW025CB FEW035 BKN090 22/16 Q1012
OICC 221800Z 30010KT 7000 -RA SCT030CB SCT035 OVC080 08/05 Q1013 A2992
OICI 221800Z 22006KT 8000 FEW030CB SCT035 OVC080 07/05 Q1016 A3001 RERA
TAF OICI 221755Z 2218/2324 VRB03MPS 8000 FEW030TCU SCT035 OVC080 
     BECMG 2221/2223 SCT035 
     BECMG 2300/2303 NSC
       
OICJ 221651Z 13008KT 9999 FEW035CB SCT040 BKN090 09/03 Q1014
OICK 221750Z 15002KT CAVOK 08/07 Q1014
OICS 221752Z 16006KT 6000 -RA FEW035CB SCT040 BKN080 06/04 Q1012
OIFK 221700Z 00000KT CAVOK 11/M01 Q1012
OIFM 221800Z 00000KT 9999 FEW040 04/M04 Q1015 A2999
TAF OIFM 221755Z 2218/2324 14004MPS 7000 FEW030CB SCT035 BKN090 
     TEMPO 2218/2304 03007MPS 5000 SHRA BR 
     BECMG 2308/2310 FEW035 SCT100
       
OIFS 221800Z 27004KT 8000 FEW040 06/02 Q1018
OIGG 221800Z 29004KT 9999 FEW010CB BKN015 OVC080 14/13 Q1010
OIGK 221650Z 00000KT 9999 SCT020 BKN070 03/02 Q1010
OIHH 221753Z 24006KT 9999 FEW035CB SCT040 09/M01 Q1012
OIHM 221653Z 14008KT 9999 FEW035CB SCT040 06/02 Q1014 RESH
OIIE 221800Z 00000KT 9999 FEW040 SCT100 12/M01 Q1011
TAF OIIE 221755Z 2218/2324 12004MPS 9999 FEW040 SCT100 
     BECMG 2221/2223 FEW030CB SCT035 BKN100 
     TEMPO 2305/2308 4000 SHRA SCT030CB SCT035 OVC090 
     BECMG 2309/2311 NSC
       
OIII 221800Z 23004KT 9999 FEW040 SCT100 14/01 Q1011 A2988
TAF OIII 221755Z 2218/2324 22004MPS 7000 FEW040 SCT100 
     BECMG 2219/2221 FEW030CB SCT035 BKN100 
     TEMPO 2221/2224 03009MPS 4000 SHRA FEW035CB SCT035 OVC090 
     TEMPO 2305/2308 4000 SHRA SCT030CB SCT035 OVC090 
     BECMG 2309/2311 FEW035 SCT100
       
OIIK 221700Z 25004KT 9999 FEW030CB BKN100 09/06 Q1011
OIIP 221800Z 15006KT 9999 FEW035 BKN100 11/M03 Q1011
OIIS 221700Z 36002KT CAVOK 12/M02 Q1012
OIKB 221800Z 24004KT 9999 FEW100 24/18 Q1013 A2992
TAF OIKB 221755Z 2218/2324 32003MPS 7000 NSC 
     BECMG 2309/2312 7000 FEW035CB SCT040 BKN090 
     TEMPO 2315/2321 4000 TS SHRA SCT030CB SCT035 BKN090
       
OIKK 221800Z 16004KT 9999 FEW040 SCT100 10/M01 Q1018 A3008
TAF OIKK 221755Z 2218/2324 12004MPS 8000 FEW040 SCT100 
     BECMG 2309/2311 FEW035CB SCT040 BKN090
       
OIKO 221650Z 11002KT 8000 NSC 21/17 Q1014
OIKQ 221800Z 00000KT 6000 NSC 22/15 Q1013
OIMB 221800Z 10008KT CAVOK 09/M12 Q1017
OIMC 221800Z AUTO 18010KT //// // ////// 19/M04 Q1008
OIMD 221700Z 00000KT CAVOK 08/M10 Q1011
OIMM 221800Z 23006KT CAVOK 14/M05 Q1013 A2991
TAF OIMM 221755Z 2218/2324 12005MPS 7000 FEW040 
     BECMG 2306/2309 FEW035CB SCT040 BKN100 
     TEMPO 2309/2324 4000 SHRA
       
OIMN 221800Z 01004KT CAVOK 11/00 Q1012
OIMQ 221800Z AUTO 09006KT //// // ////// 11/M07 Q1014
OINB 221700Z VRB02KT 9999 SCT025 20/17 Q1008
OINE 221800Z 00000KT CAVOK 16/03 Q1006
OING 221800Z 29004KT CAVOK 13/08 Q1008
OINK 221700Z 00000KT CAVOK 17/06 Q1005
OINN 221800Z 26006KT 8000 -SHRA SCT020CB BKN025 17/15 Q1008
OINR 221800Z 31004KT 5000 -RA SCT020CB SCT025 OVC080 15/14 Q1009
OINZ 221800Z 20006KT 9999 FEW030 14/12 Q1009
OISA 221655Z 00000KT 9999 SCT040 07/02 Q1018
OISF 221800Z 00000KT 7000 FEW035CB SCT040 OVC090 10/10 Q1017
OISL 221800Z 00000KT 9999 FEW040 BKN100 13/11 Q1016
TAF OISL 221755Z 2218/2324 14004MPS 7000 FEW035 OVC100 
     TEMPO 2303/2312 21008MPS 3000 TSRA SCT030CB SCT035 OVC080 
     BECMG 2315/2318 NSC
       
OISR 221500Z 00000KT 5000 BR FEW035CB FEW040 BKN100 16/15 Q1016 RESH
OISS 221800Z 00000KT 5000 RA BR FEW010 FEW030CB SCT035 OVC070 09/09 Q1019 A3011
TAF OISS 221755Z 2218/2324 24004MPS 5000 RA / BR FEW035CB SCT040 OVC090 
     TEMPO 2221/2309 24009MPS 4000 TSRA SCT030CB SCT035 OVC080 
     BECMG 2310/2312 FEW040 SCT100
       
OISY 221800Z 12004KT 9999 FEW020 BKN035 BKN070 06/06 Q1020
OITL 221751Z 11016KT 9999 FEW030 FEW045CB SCT080 06/04 Q1009
OITM 221800Z 17006KT 9999 BKN038 06/03 Q1010
OITP 221700Z 29006KT 9999 SCT040 09/05 Q1010
OITR 221800Z 19004KT 9999 FEW030CB SCT035 04/M02 Q1009
TAF OITR 221755Z 2218/2324 16005MPS 9999 FEW035 
     BECMG 2309/2312 FEW030TCU SCT035 BKN100
       
OITT 221800Z 30004KT 9999 FEW035 03/M01 Q1010 A2984 NOSIG
TAF OITT 221755Z 2218/2324 33003MPS 9999 FEW035 
     BECMG 2309/2312 FEW030TCU SCT035 BKN100
       
OITU 221652Z 36012KT 9999 FEW030CB BKN035 03/M03 Q1008
OITZ 221500Z 13002KT 9999 FEW030CB SCT035 06/04 Q1009
OIYY 221800Z 17004KT 9999 FEW040 14/00 Q1014
OIZB 221800Z 34004KT CAVOK 09/M10 Q1014
TAF OIZC 221755Z 2218/2324 32003MPS 8000 NSC 
     BECMG 2307/2309 20005MPS
       
OIZH 221800Z 16010KT CAVOK 12/M13 Q1018 A3006
TAF OIZH 221755Z 2218/2324 15005MPS 8000 FEW040 BKN100 
     TEMPO 2315/22324 FEW035CB SCT040 BKN100
       
OIZI 221800Z 00000KT CAVOK 17/M10 Q1015
OIZJ 221800Z 09008KT 7000 NSC 25/18 Q1013
OING 221800Z 29004KT CAVOK 13/08 Q1008
OIHH 221753Z 24006KT 9999 FEW035CB SCT040 09/M01 Q1012
OICI 221800Z 22006KT 8000 FEW030CB SCT035 OVC080 07/05 Q1016 A3001 RERA
TAF OICI 221755Z 2218/2324 VRB03MPS 8000 FEW030TCU SCT035 OVC080 
     BECMG 2221/2223 SCT035 
     BECMG 2300/2303 NSC
       
OIZI 221800Z 00000KT CAVOK 17/M10 Q1015
OIZJ 221800Z 09008KT 7000 NSC 25/18 Q1013
OINE 221800Z 00000KT CAVOK 16/03 Q1006
OIKK 221800Z 16004KT 9999 FEW040 SCT100 10/M01 Q1018 A3008
TAF OIKK 221755Z 2218/2324 12004MPS 8000 FEW040 SCT100 
     BECMG 2309/2311 FEW035CB SCT040 BKN090
       
OIBQ 221500Z 13018KT 9999 SCT040 BKN100 22/18 Q1012
OICK 221750Z 15002KT CAVOK 08/07 Q1014
OIBK 221800Z 07010KT 6000 FEW025CB SCT030 BKN090 22/19 Q1013
TAF OIBK 221755Z 2218/2324 08007MPS 6000 FEW025CB SCT030 BKN090 
     TEMPO 2303/2314 4000 TS SHRA FEW030CB SCT035 BKN090 
     BECMG 2315/2318 FEW035
       
OISR 221500Z 00000KT 5000 BR FEW035CB FEW040 BKN100 16/15 Q1016 RESH
OISL 221800Z 00000KT 9999 FEW040 BKN100 13/11 Q1016
TAF OISL 221755Z 2218/2324 14004MPS 7000 FEW035 OVC100 
     TEMPO 2303/2312 21008MPS 3000 TSRA SCT030CB SCT035 OVC080 
     BECMG 2315/2318 NSC
       
OIBV 221400Z 02016KT 6000 FEW025CB FEW035 BKN090 22/16 Q1012
OIAM 221800Z 31029KT 2000 +TS BKN020CB SCT035 18/15 Q1013
OIMM 221800Z 23006KT CAVOK 14/M05 Q1013 A2991
TAF OIMM 221755Z 2218/2324 12005MPS 7000 FEW040 
     BECMG 2306/2309 FEW035CB SCT040 BKN100 
     TEMPO 2309/2324 4000 SHRA
       
OIII 221800Z 23004KT 9999 FEW040 SCT100 14/01 Q1011 A2988
TAF OIII 221755Z 2218/2324 22004MPS 7000 FEW040 SCT100 
     BECMG 2219/2221 FEW030CB SCT035 BKN100 
     TEMPO 2221/2224 03009MPS 4000 SHRA FEW035CB SCT035 OVC090 
     TEMPO 2305/2308 4000 SHRA SCT030CB SCT035 OVC090 
     BECMG 2309/2311 FEW035 SCT100
       
OINN 221800Z 26006KT 8000 -SHRA SCT020CB BKN025 17/15 Q1008
OITP 221700Z 29006KT 9999 SCT040 09/05 Q1010
OIIP 221800Z 15006KT 9999 FEW035 BKN100 11/M03 Q1011
OINR 221800Z 31004KT 5000 -RA SCT020CB SCT025 OVC080 15/14 Q1009
OIGG 221800Z 29004KT 9999 FEW010CB BKN015 OVC080 14/13 Q1010
OITM 221800Z 17006KT 9999 BKN038 06/03 Q1010
OICS 221752Z 16006KT 6000 -RA FEW035CB SCT040 BKN080 06/04 Q1012
OIMC 221800Z AUTO 18010KT //// // ////// 19/M04 Q1008
OINZ 221800Z 20006KT 9999 FEW030 14/12 Q1009
OIIS 221700Z 36002KT CAVOK 12/M02 Q1012
OICC 221800Z 30010KT 7000 -RA SCT030CB SCT035 OVC080 08/05 Q1013 A2992
OIAI 221700Z 15006KT 9999 FEW035CB SCT040 16/13 Q1012
OIFS 221800Z 27004KT 8000 FEW040 06/02 Q1018
OISS 221800Z 00000KT 5000 RA BR FEW010 FEW030CB SCT035 OVC070 09/09 Q1019 A3011
TAF OISS 221755Z 2218/2324 24004MPS 5000 RA / BR FEW035CB SCT040 OVC090 
     TEMPO 2221/2309 24009MPS 4000 TSRA SCT030CB SCT035 OVC080 
     BECMG 2310/2312 FEW040 SCT100
       
OIBS 221500Z 21010KT 9999 FEW025CB SCT100 27/14 Q1012
OITT 221800Z 30004KT 9999 FEW035 03/M01 Q1010 A2984 NOSIG
TAF OITT 221755Z 2218/2324 33003MPS 9999 FEW035 
     BECMG 2309/2312 FEW030TCU SCT035 BKN100
       
OIBJ 221500Z 08006KT 9999 SCT035 BKN200 14/14 Q1017
OITR 221800Z 19004KT 9999 FEW030CB SCT035 04/M02 Q1009
TAF OITR 221755Z 2218/2324 16005MPS 9999 FEW035 
     BECMG 2309/2312 FEW030TCU SCT035 BKN100
       
OISY 221800Z 12004KT 9999 FEW020 BKN035 BKN070 06/06 Q1020
OIYY 221800Z 17004KT 9999 FEW040 14/00 Q1014
OIZB 221800Z 34004KT CAVOK 09/M10 Q1014
OIZH 221800Z 16010KT CAVOK 12/M13 Q1018 A3006
TAF OIZH 221755Z 2218/2324 15005MPS 8000 FEW040 BKN100 
     TEMPO 2315/22324 FEW035CB SCT040 BKN100
       
OITZ 221500Z 13002KT 9999 FEW030CB SCT035 06/04 Q1009